Content
SEND FEEDBACK

Daily
Averages
Monthly
Summary
Canada

VANCOUVER, BRITISH COLUMBIA


Home > North America > Canada > British Columbia
Elevation: 7 feet     Latitude: 49 11N     Longitude: 123 10W

WEATHER
 
SELECT A DAY
Number of Records: 249,253;   Date Range: 5/15/97 - 7/23/14
 
SHARE

PRINT THIS DATA

[ ← Previous Day ]
WEATHER ALMANAC - MARCH 23, 2013
[ Next Day → ]
[ °C ]   °F
Weather ElementAverageHighLow
Temperature39 °F46.4 °F (4:55 pm)32 °F (12:35 am)
Dewpoint31.2 °F32 °F (12:35 am)26.6 °F (5:35 pm)
Humidity75.1 %100 % (12:35 am)49 % (5:35 pm)
Barometer30.35 in30.38 in (2:35 am)30.30 in (8:55 pm)
Wind Speed1.5 mph6.9 mph (10:15 am)
Weather ElementAverage
Visibility10 mi
Wind DirectionENE (53.1 °)

Weather ElementTotal
Precipitation---
Heating Degree Days25.8 (Base 65)
Averaged from 67 records on March 23, 2013
WEATHER CONDITIONS BREAKOUT
WIND DIRECTION BREAKOUT
WEATHER BY HOUR - MARCH 23, 2013
[ °C ]   °F
Local TimeTemperatureDewpointHumidityBarometerVisibilityWind DirectionWind SpeedGust SpeedPrecipitationEventsConditions
12:35 AM32.0 °F32.0 °F100 %30.37 in10.0 miCalmClear
1:15 AM33.8 °F32.0 °F93 %30.36 in10.0 miCalmClear
1:35 AM33.8 °F32.0 °F93 %30.36 in10.0 miCalmClear
1:55 AM32.0 °F32.0 °F100 %30.37 in10.0 miSouth (190°)3.5 mphClear
2:15 AM32.0 °F32.0 °F100 %30.37 in10.0 miCalmClear
2:35 AM33.8 °F32.0 °F93 %30.38 in10.0 miCalmClear
2:55 AM32.0 °F32.0 °F100 %30.37 in10.0 miCalmClear
3:15 AM33.8 °F32.0 °F93 %30.37 in10.0 miCalmClear
3:35 AM32.0 °F32.0 °F100 %30.38 in10.0 miCalmClear
4:15 AM33.8 °F32.0 °F93 %30.37 in10.0 miCalmClear
4:35 AM33.8 °F32.0 °F93 %30.37 in10.0 miCalmPartly Cloudy
4:55 AM33.8 °F32.0 °F93 %30.37 in10.0 miCalmMostly Cloudy
5:15 AM35.6 °F32.0 °F87 %30.37 in10.0 miCalmOvercast
5:35 AM33.8 °F32.0 °F93 %30.37 in10.0 miCalmMostly Cloudy
6:15 AM33.8 °F32.0 °F93 %30.38 in10.0 miCalmClear
6:35 AM35.6 °F32.0 °F87 %30.38 in10.0 miCalmClear
6:55 AM35.6 °F32.0 °F87 %30.37 in10.0 miCalmClear
7:15 AM33.8 °F32.0 °F93 %30.38 in10.0 miCalmClear
7:35 AM35.6 °F32.0 °F87 %30.38 in10.0 miCalmClear
7:55 AM35.6 °F32.0 °F87 %30.38 in10.0 miCalmClear
8:15 AM37.4 °F32.0 °F81 %30.38 in10.0 miCalmClear
8:35 AM37.4 °F32.0 °F81 %30.38 in10.0 miCalmClear
8:55 AM39.2 °F32.0 °F75 %30.38 in10.0 miSouth (180°)4.6 mphScattered Clouds
9:15 AM39.2 °F32.0 °F75 %30.38 in10.0 miSouth (180°)4.6 mphScattered Clouds
9:35 AM39.2 °F32.0 °F75 %30.38 in10.0 miSouth (180°)4.6 mphPartly Cloudy
9:55 AM41.0 °F32.0 °F70 %30.38 in10.0 miSouth (190°)5.8 mphPartly Cloudy
10:15 AM41.0 °F32.0 °F70 %30.38 in10.0 miSouth (180°)6.9 mphClear
10:35 AM41.0 °F32.0 °F70 %30.38 in10.0 miSSW (200°)6.9 mphClear
10:55 AM41.0 °F32.0 °F70 %30.38 in10.0 miSouth (180°)4.6 mphScattered Clouds
11:15 AM42.8 °F32.0 °F66 %30.38 in10.0 miSouth (180°)3.5 mphMostly Cloudy
11:35 AM42.8 °F30.2 °F61 %30.38 in10.0 miSouth (170°)5.8 mphOvercast
11:55 AM42.8 °F30.2 °F61 %30.38 in10.0 miSouth (190°)5.8 mphPartly Cloudy
12:15 PM44.6 °F30.2 °F57 %30.37 in10.0 miSSW (210°)5.8 mphPartly Cloudy
12:35 PM44.6 °F32.0 °F61 %30.37 in10.0 miCalmScattered Clouds
12:55 PM44.6 °F32.0 °F61 %30.36 in10.0 miCalmMostly Cloudy
1:15 PM44.6 °F32.0 °F61 %30.36 in10.0 miCalmMostly Cloudy
1:35 PM42.8 °F32.0 °F66 %30.36 in10.0 miCalmMostly Cloudy
1:55 PM42.8 °F32.0 °F66 %30.36 in10.0 miNorth (10°)3.5 mphMostly Cloudy
2:15 PM42.8 °F32.0 °F66 %30.36 in10.0 miNorth (350°)3.5 mphMostly Cloudy
2:35 PM44.6 °F32.0 °F61 %30.36 in10.0 miNNE (20°)4.6 mphScattered Clouds
2:55 PM44.6 °F28.4 °F53 %30.35 in10.0 miENE (60°)4.6 mphClear
3:15 PM44.6 °F28.4 °F53 %30.35 in10.0 miNorth (10°)4.6 mphClear
3:35 PM44.6 °F28.4 °F53 %30.34 in10.0 miNorth (360°)4.6 mphClear
3:55 PM44.6 °F28.4 °F53 %30.34 in10.0 miNorth (360°)3.5 mphClear
4:15 PM44.6 °F28.4 °F53 %30.34 in10.0 miNE (40°)4.6 mphClear
4:35 PM44.6 °F28.4 °F53 %30.33 in10.0 miNE (40°)3.5 mphClear
4:55 PM46.4 °F30.2 °F53 %30.33 in10.0 miCalmClear
5:15 PM46.4 °F28.4 °F50 %30.33 in10.0 miCalmClear
5:35 PM44.6 °F26.6 °F49 %30.32 in10.0 miEast (80°)3.5 mphClear
5:55 PM44.6 °F28.4 °F53 %30.32 in10.0 miCalmClear
6:15 PM44.6 °F28.4 °F53 %30.31 in10.0 miCalmClear
6:35 PM44.6 °F30.2 °F57 %30.31 in10.0 miCalmClear
6:55 PM44.6 °F30.2 °F57 %30.31 in10.0 miCalmClear
7:15 PM41.0 °F32.0 °F70 %30.31 in10.0 miCalmClear
7:35 PM39.2 °F32.0 °F75 %30.31 in8.0 miCalmClear
7:55 PM39.2 °F32.0 °F75 %30.31 in10.0 miCalmClear
8:15 PM37.4 °F32.0 °F81 %30.31 in10.0 miCalmClear
8:35 PM37.4 °F32.0 °F81 %30.31 in10.0 miCalmClear
8:55 PM37.4 °F32.0 °F81 %30.30 in10.0 miCalmClear
9:15 PM37.4 °F30.2 °F75 %30.30 in10.0 miCalmClear
9:35 PM37.4 °F32.0 °F81 %30.30 in10.0 miCalmClear
10:15 PM35.6 °F32.0 °F87 %30.30 in10.0 miCalmClear
10:35 PM35.6 °F30.2 °F81 %30.31 in10.0 miCalmClear
10:55 PM35.6 °F30.2 °F81 %30.31 in10.0 miCalmClear
11:15 PM35.6 °F30.2 °F81 %30.31 in10.0 miCalmClear
11:35 PM35.6 °F32.0 °F87 %30.31 in10.0 miCalmClear
11:55 PM35.6 °F32.0 °F87 %30.30 in10.0 miCalmClear
Hourly data recorded from CZBB, located miles away from Vancouver, British Columbia







STORIES FROM OUR PARTNERS